Torna al catalogo

THOR ABLESTAR DEB

AttivoLEO
NORAD 230·DEBRIS·🇺🇸 United States

Lanciato Jun 29, 1961 da Cape Canaveral Space Force Station

Loading…

Prossimi Passaggi (prossime 24 ore)

TLE

AggiornatoSource: Space-Track

Epoca: Sep 14, 2026, 13:06 UTC

1 00230U 61015BN  26257.54644305  .00000030  00000-0  74863-4 0  9996
2 00230  66.8834 189.4132 0086934 110.1417 250.9045 13.96822817318234

Traccia THOR ABLESTAR DEB in tempo reale con AllMySat

Download on the App Store